METEOR 1-27

导读

METEOR 1-27是独联体(CIS)继承自苏联航天遗产的一颗极轨气象卫星,隶属于经典“流星-1”气象卫星系列,于1977年4月5日发射入轨。作为低地球轨道气象观测卫星,它承担着大气层观测、全球天气预报与气候数据采集任务,搭载多光谱及红外探测设备,可监测云层分布、海面温度等气象要素,为早期全球气象合作和灾害预警提供了关键数据支持,至今仍保持在轨运行。

基本信息
目录编号:
9903
目录名称:
METEOR 1-27
国际标识:
1977-024A
轨道中心:
EARTH
卫星名称:
METEOR 1-27
卫星全名:
--
卫星状态:
在轨 (已飞行18057 天)
发射日期:
1977-04-05 UTC
国别 :
俄罗斯(独联体) (CIS)
星等 :
--
该卫星已列入 空间交会检测服务 Space Conjunction Data Service (SCDS) ,当前飞行风险评估等级: 无高风险
轨道信息
数据来源 国际轨道数据 AOE轨道数据
星历时间 2026-09-11T21:26:59+0800
13小时前
查看轨道信息
2026-09-11T01:00:00+0800
1天前
查看轨道信息
半长轴 7241.859km 7241.864km
偏心率 0.0037625 0.0037367
轨道倾角 81.270° 81.267°
近地点辐角 118.766° 120.738°
升交点赤经 54.000° 54.822°
平近点角 241.730° 240.938°
近地点 836.474km 836.666km
远地点 890.97km 890.788km
周期 102.220分钟 102.220分钟
每日圈数 14.087297 14.087285
详细信息
使用方式:
暂无
2D轨道图
3D轨道图
轨道高度分析图
轨道倾角分析图
轨道综合分析图
查看轨道综合分析图
与全量物体交会距离演化趋势
与全量物体交会风险概率演化趋势